Location: Chenereilles
(45.4866°N, 4.0790°E)
Time: 15:13:55
(UTC+00:00)

Cosmos 1464 Rocket - Pass Details

Date: 12 November 2019
Orbit: 951 x 1002 km, 82.9° (Epoch: 08 December)

Event Time Altitude Azimuth Distance (km) Brightness Sun altitude
Rises 18:08:19 0° 351° (N) 3,667 7.1 -19.6°
Reaches altitude 10° 18:10:51 10° 352° (N) 2,709 6.4 -20.0°
Maximum altitude 18:17:03 87° 81° (E) 964 3.9 -21.1°
Drops below altitude 10° 18:23:10 10° 172° (S) 2,671 6.2 -22.2°
Sets 18:25:38 0° 173° (S) 3,611 6.9 -22.6°
